Regional Weather Roundup
Issued by NWS Charleston, SC

Current Version | Previous Version | Graphics & Text | Print | Product List | Glossary On
Versions: 1 2 3 4 5 6 7 8 9 10 11 12 13 14 15 16 17 18 19 20 21 22 23 24 25 26 27 28 29 30 31 32 33 34 35 36 37 38 39 40 41 42 43 44 45 46 47 48 49 50
000
ASUS42 KCHS 030812
RWRCHS

REGIONAL WEATHER ROUNDUP
NATIONAL WEATHER SERVICE CHARLESTON SC
400 AM EDT SUN MAY 03 2015

NOTE: "FAIR" INDICATES FEW OR NO CLOUDS BELOW 12,000 FEET WITH NO
SIGNIFICANT WEATHER AND/OR OBSTRUCTIONS TO VISIBILITY.

NOT ALL STATIONS ARE QUALITY CONTROLLED BY THE NATIONAL
WEATHER SERVICE. USE DATA WITH CAUTION...ESPECIALLY
DEWPOINT OBSERVATIONS.

SCZ027-030-031-034>040-042>050-030900-
...SOUTHEAST SOUTH CAROLINA...

CITY           SKY/WX    TMP DP  RH WIND       PRES   REMARKS
N CHARLESTON   CLEAR     58  56  93 CALM      30.11S
WATERFRONT PRK   N/A     63 N/A N/A CALM        N/A
MOUNT PLEASANT FAIR      55  55 100 MISG      30.11R
PINOPOLIS      NOT AVBL
MONCKS CORNER  FAIR      54  52  94 CALM      30.10S
SUMMERVILLE    FAIR      54  54 100 CALM      30.11S
BEAUFORT MCAS  CLEAR     57  54  89 CALM      30.11S
BEAUFORT ARPT  FAIR      59  57  94 CALM      30.10S
HILTON HEAD IS CLEAR     57  57 100 CALM      30.12R
WALTERBORO     SUNNY     54  52  94 W3        30.11S
ALLENDALE      FAIR      55  54  94 CALM      30.10S

...SOUTHERN MIDLANDS AND PEE DEE...

CITY           SKY/WX    TMP DP  RH WIND       PRES   REMARKS
GEORGETOWN     NOT AVBL
KINGSTREE      NOT AVBL
ORANGEBURG     CLEAR     52  50  93 CALM      30.11R
BARNWELL       FAIR      54  52  94 CALM      30.12R
AIKEN          FAIR      50  46  87 CALM      30.13S
MANNING        LGT RAIN  46  14  27 CALM      30.11R
COLUMBIA       CLEAR     53  48  83 CALM      30.10S
SUMTER         CLEAR     52  47  83 CALM      30.09S
FLORENCE       CLEAR     53  51  93 CALM      30.11R
MYRTLE BEACH   CLEAR     59  55  88 CALM      30.13R
N MYRTLE BEACH FOG       56  55  97 CALM      30.11R VSB 3/4

$$

GAZ063-065-086>088-099>101-113>116-118-119-134>141-150-030900-
...SOUTHEAST GEORGIA...

CITY           SKY/WX    TMP DP  RH WIND       PRES   REMARKS
SAVANNAH ARPT  CLEAR     57  52  83 CALM      30.11S
HUNTER AAF     CLEAR     55  54  97 W3        30.09S
FORT STEWART   CLEAR     54  52  92 CALM      30.09S
STATESBORO       N/A     54  54 100 CALM      30.11S
SYLVANIA       SUNNY     54  54 100 CALM      30.11F
CLAXTON        FAIR      52  52 100 CALM      30.11S

...CSRA...CENTRAL AND FAR SOUTHEAST GEORGIA...

CITY           SKY/WX    TMP DP  RH WIND       PRES   REMARKS
THOMSON        CLEAR     53  53 100 CALM      30.14S
AUGUSTA-BUSH   CLEAR     47  46  97 CALM      30.10S FOG
AUGUSTA-DANIEL CLEAR     59  51  75 CALM      30.10S
SWAINSBORO     NOT AVBL
VIDALIA        CLEAR     59  54  82 S3        30.11S
EASTMAN          N/A     52  52 100 CALM      30.13R FOG
HAZLEHURST     FAIR      60  54  79 S5        30.10S
ALMA           CLEAR     52  50  93 CALM      30.11S
WAYCROSS       CLEAR     56  55  94 CALM      30.11S
JESUP          FAIR      54  52  94 CALM      30.11F
BAXLEY         FAIR      55  54  94 CALM      30.11S
BRUNSWICK      CLEAR     55  54  94 CALM      30.11S
SAINT SIMONS   CLEAR     60  56  86 CALM      30.11S

$$

SCZ027-028-034-036>038-045-046-048>050-GAZ119-141-030900-
...LAKE AND SUPPLEMENTAL COASTAL OBSERVATIONS...

STATION/POSITION TIME  TEMP    WIND        PRES    WAVE   SWELL
                       AIR SEA DIR/SP/G            HT/PER HT/PER/DIR
                 (UTC) (F)     (DEG/KT/KT) (MB)    (FT/S) (FT/S/D)
UPR LAKE MARION  NOT AVBL
WINYAH BAY       NOT AVBL
LAKE MURRAY      0700   60        CALM     1018.6F
ACE BASIN NERRS  NOT AVBL
FORT PULASKI     0700   63 69  250/  3/  5 1019.7F
SAPELO ISLAND    0700   58     200/  1     1019.0F

$$

ANZ835-935-AMZ111-154-330-350-352-354-370-450-454-472-030900-
...C-MAN AND BUOY OBSERVATIONS...

STATION/POSITION TIME  TEMP    WIND        PRES    WAVE   SWELL
                       AIR SEA DIR/SP/G            HT/PER HT/PER/DIR
                 (UTC) (F)     (DEG/KT/KT) (MB)    (FT/S) (FT/S/D)
BUOY 41004       0750   70 71  220/  6/  8 1019.1F   2/11   2/11
BUOY 41008       0750   69 69  220/  6/  8 1019.7F   3/14   3/ 70/14
FOLLY BEACH CMAN 0800   62     310/  3/  4 1019.5R
CAPERS NEARSHORE 0708   68     260/  8/ 10 1019.2F
FRIPP NEARSHORE  0700   69     220/  8/ 10 1019.0F


STATION/POSITION TIME  TEMP    WIND        PRES    WAVE   SWELL
                       AIR SEA DIR/SP/G            HT/PER HT/PER/DIR
                 (UTC) (F)     (DEG/KT/KT) (MB)    (FT/S) (FT/S/D)
5E ST. MARYS GA  0721      71                N/A     3/15   2/100/15
FRYING PAN BUOY  0750   69 70  260/  8/  8 1020.0F   3/ 9   3/ 60/ 9
BUOY 41025       0650   54     310/  6/  6 1019.0    5/11   5/ 60/11
CAPE LOOKOUT NC  0800   59     240/  5/  5 1019.1S
BUOY 41002       0750   65 69  350/ 16/ 19 1018.4R   8/11   7/ 20/11
BUOY 41010       0720   72 78   30/  8/ 12 1019.0F
ST AUGUSTINE FL  0800   70 70   80/  6/  7 1020.2S


$$



USA.gov is the U.S. government's official web portal to all federal, state and local government web resources and services.